Flag for Norway

Past Weather in Tønsberg, Norway — Yesterday and Last 2 Weeks

Now
54 °F

Partly sunny.


Feels Like: 47 °F
Forecast: 60 / 53 °F
Wind: 26 mph from Southwest

Location: Oseberg
Current Time: Sep 21, 2020 at 12:30:58 pm
Latest Report: Sep 21, 2020 at 11:50 am
Visibility: N/A
Pressure29.80 "Hg
Humidity: 88%
Dew Point: 50 °F
Location of TønsbergLocation

Past Weather in Tønsberg — Graph

°F

Tønsberg Temperature Yesterday

Maximum temperature yesterday: 54 °F (at 12:50 am)
Minimum temperature yesterday: 52 °F (at 12:20 am)
Average temperature yesterday: 53 °F

High & Low Weather Summary for the Past Weeks

 TemperatureHumidityPressure
High57 °F (Sep 14, 6:20 pm)100% (Sep 7, 2:20 pm)30.48 "Hg (Sep 7, 2:20 pm)
Low48 °F (Sep 7, 4:50 am)58% (Sep 10, 6:20 am)29.39 "Hg (Sep 11, 5:20 pm)
Average53 °F86%29.96 "Hg
* Reported Sep 6 11:20 am — Sep 21 11:20 am, Tønsberg. Weather by CustomWeather, © 2020

Note: Actual official high and low records may vary slightly from our data, if they occured in-between our weather recording intervals... More about our weather records

Tønsberg Weather History for the Previous 24 Hours

Scroll right to see more
 ConditionsComfort  
Time TempWeatherWind HumidityBarometerVisibility
11:20 am
Mon, Sep 21
54 °FPartly sunny.26 mph88%29.80 "HgN/A
10:50 am54 °FPartly sunny.28 mph88%29.80 "HgN/A
10:20 am54 °FPartly sunny.28 mph94%29.80 "HgN/A
9:50 am54 °FDrizzle. Broken clouds.29 mph100%29.80 "Hg4 mi
9:20 am54 °FDrizzle. Fog.32 mph94%29.80 "Hg3 mi
8:50 am54 °FLow clouds.33 mph94%29.80 "Hg4 mi
8:20 am54 °FLow clouds.38 mph94%29.80 "Hg6 mi
7:50 am54 °FDrizzle. Low clouds.40 mph94%29.80 "Hg6 mi
7:20 am54 °FDrizzle. Low clouds.38 mph94%29.80 "Hg6 mi
6:50 am54 °FLow clouds.40 mph94%29.83 "HgN/A
6:20 am54 °FLow clouds.38 mph94%29.83 "HgN/A
5:50 am54 °FLow clouds.37 mph94%29.86 "Hg5 mi
5:20 am54 °FLow clouds.37 mph94%29.89 "HgN/A
2:20 am52 °FPassing clouds.29 mph100%29.95 "HgN/A
1:50 am52 °FFog.30 mph100%29.98 "Hg0 mi
1:20 am54 °FFog.29 mph100%29.98 "Hg0 mi
12:50 am54 °FFog.28 mph94%29.98 "Hg0 mi
12:20 am54 °FFog.28 mph94%30.01 "Hg0 mi
11:50 pm
Sun, Sep 20
54 °FFog.23 mph94%30.01 "Hg0 mi
11:20 pm54 °FFog.22 mph94%30.04 "Hg2 mi
10:50 pm54 °FFog.23 mph94%30.04 "Hg2 mi
10:20 pm54 °FLow clouds.22 mph94%30.04 "HgN/A
9:50 pm54 °FLow clouds.21 mph94%30.07 "HgN/A
9:20 pm54 °FLow clouds.18 mph94%30.07 "HgN/A
8:20 pm54 °FLow clouds.16 mph94%30.09 "HgN/A
7:50 pm54 °FLow clouds.17 mph94%30.09 "HgN/A
7:20 pm54 °FLow clouds.17 mph94%30.09 "HgN/A
6:50 pm54 °FLow clouds.18 mph94%30.09 "HgN/A
6:20 pm54 °FLow clouds.17 mph100%30.09 "Hg6 mi
5:50 pm54 °FLow clouds.20 mph100%30.12 "Hg4 mi
5:20 pm54 °FFog.17 mph100%30.12 "Hg1 mi
4:20 pm54 °FFog.20 mph94%30.12 "Hg0 mi
3:20 pm52 °FFog.20 mph100%30.12 "Hg0 mi
2:50 pm52 °FFog.18 mph100%30.12 "Hg0 mi
2:20 pm52 °FFog.21 mph100%30.12 "Hg0 mi
1:50 pm52 °FFog.20 mph100%30.12 "Hg0 mi
1:20 pm52 °FFog.21 mph100%30.15 "Hg0 mi
12:50 pm52 °FFog.21 mph100%30.15 "Hg0 mi
12:20 pm52 °FFog.20 mph100%30.15 "Hg0 mi
Weather by CustomWeather, © 2020

See weather overview